Skip Page Navigation
NASA JPL Caltech
NASA Logo - Jet Propulsion Laboratory + View the NASA Portal
+ Near-Earth Object (NEO) Program
Search JPL
JPL Home Earth Solar System Stars & Galaxies Technology
JPL Solar System Dynamics
BODIES ORBITS EPHEMERIDES TOOLS PHYSICAL DATA DISCOVERY FAQ SITE MAP
JPL Small-Body Database Browser
Search: [ help ]  
307005 (2001 XP1)
Classification: Apollo [NEO, PHA]          SPK-ID: 2307005
Ephemeris | Orbit Diagram | Orbital Elements | Physical Parameters | Discovery Circumstances | Close-Approach Data ]

[ hide orbit diagram ]
Orbit Diagram
Note: Make sure you have Java enabled on your browser to see the applet. This applet is provided as a 3D orbit visualization tool. The applet was implemented using 2-body methods, and hence should not be used for determining accurate long-term trajectories (over several years or decades) or planetary encounter circumstances. For accurate long-term ephemerides, please instead use our Horizons system.
Orbit Viewer

Additional Notes: the orbits shown in the applet are color coded. The planets are white lines, and the asteroid/comet is a blue line. The bright white line indicates the portion of the orbit that is above the ecliptic plane, and the darker portion is below the ecliptic plane. Likewise for the asteroid/comet orbit, the light blue indicates the portion above the ecliptic plane, and the dark blue the portion below the ecliptic plane.

Orbit Viewer applet originally written and kindly provided by Osamu Ajiki (AstroArts), and further modified by Ron Baalke (JPL).


Orbital Elements at Epoch 2456400.5 (2013-Apr-18.0) TDB
Reference: JPL 26 (heliocentric ecliptic J2000)
 Element Value Uncertainty (1-sigma)   Units 
e .7522707501137257 6.2728e-08  
a 2.892435138041545 2.0104e-08 AU
q .7165407870917343 1.83e-07 AU
i 39.22225841860683 3.8463e-05 deg
node 268.1386692555128 1.4033e-05 deg
peri 246.2987739093523 2.6294e-05 deg
M 93.15696592629411 5.0779e-06 deg
tp 2455935.549515425395
(2012-Jan-09.04951543)
2.1684e-05 JED
period 1796.77571915868
4.92
1.8733e-05
5.129e-08
d
yr
n .2003588963059707 2.0889e-09 deg/d
Q 5.068329488991356 3.5228e-08 AU
  Orbit Determination Parameters
   # obs. used (total)      206  
   data-arc span      3653 days (10.00 yr)  
   first obs. used      2001-12-08  
   last obs. used      2011-12-09  
   planetary ephem.      DE405  
   SB-pert. ephem.      SB405-CPV-2  
   condition code      0  
   fit RMS      .6813  
   data source      ORB  
   producer      Otto Matic  
   solution date      2013-Apr-29 15:41:29  

Additional Information
 Earth MOID = .0155636 AU 
 T_jup = 2.560 
[ show covariance matrix ]

Ephemeris | Orbit Diagram | Orbital Elements | Physical Parameters | Discovery Circumstances | Close-Approach Data ]

Physical Parameter Table
Parameter Symbol Value Units Sigma Reference Notes
absolute magnitude H 17.799 mag .80493 26 autocmod 2.5c

307005 (2001 XP1)          Discovered 2001-Dec-08 by LINEAR at Socorro (704)
Reference: 20111210/Numbers.arcLast Updated: 2011-12-12

[ show close-approach data ]
Ephemeris | Orbit Diagram | Orbital Elements | Physical Parameters | Discovery Circumstances | Close-Approach Data ]
ABOUT SSD CREDITS/AWARDS PRIVACY/COPYRIGHT GLOSSARY LINKS
FirstGov 2013-May-26 09:08 UT
(server date/time)  
NASA Home Page
Site Manager:   Donald K. Yeomans
Webmaster  Alan B. Chamberlin